Weather History for Smithfield, NC

Change the Weather History Date:

Sunday, October 28, 2012

  Actual Average Record
Temperature  
Mean Temperature 58 °F -  
Max Temperature 62 °F 70 °F 85 °F (1984)
Min Temperature 53 °F 44 °F 28 °F (1979)
Degree Days  
Heating Degree Days 8    
Growing Degree Days 8 (Base 50)    
Moisture  
Dew Point 50 °F    
Average Humidity 70    
Maximum Humidity 100    
Minimum Humidity 55    
Precipitation  
Precipitation 0.01 in - - ()
Sea Level Pressure  
Sea Level Pressure 29.58 in    
Wind  
Wind Speed 14 mph (North)    
Max Wind Speed 21 mph    
Max Gust Speed 32 mph    
Visibility 10 miles    
Events      
Averages and records for this station are not official NWS values.
T = Trace of Precipitation, MM = Missing Value Source: NWS Daily Summary

Daily Weather History Graph

Daily Weather History Graph

Search for Another Location

Airport:

Trip Planner

Search our weather history database for the weather conditions in past years. The results will help you decide how hot, cold, wet, or windy it might be!

Date:

Astronomy

Oct. 28, 2012 Rise Set
Actual Time 7:32 AM EDT 6:22 PM EDT
Civil Twilight 7:05 AM EDT 6:48 PM EDT
Nautical Twilight 6:35 AM EDT 7:18 PM EDT
Astronomical Twilight 6:06 AM EDT 7:47 PM EDT
Moon 5:38 PM EDT (10/28) 6:24 AM EDT (10/28)
Length of Visible Light 11h 42m
Length of Day
10h 50m
Waxing Gibbous, 99% of the Moon is Illuminated
Oct 28
Waxing Gibbous
Oct 29
Full
Nov 6
Last Quarter
Nov 13
New
Nov 20
First Quarter

Hourly Weather History & Observations

Time (EDT) Temp. Dew Point Humidity Pressure Visibility Wind Dir Wind Speed Gust Speed Precip Events Conditions
12:15 AM 62.6 °F 55.4 °F 77% 29.64 in 10.0 mi North 19.6 mph 27.6 mph N/A   Overcast
12:35 AM 62.6 °F 53.6 °F 72% 29.64 in 10.0 mi North 18.4 mph 27.6 mph N/A   Overcast
12:55 AM 62.6 °F 53.6 °F 72% 29.63 in 10.0 mi NNE 20.7 mph 27.6 mph N/A   Overcast
1:15 AM 62.6 °F 53.6 °F 72% 29.62 in 10.0 mi North 15.0 mph 25.3 mph N/A   Overcast
1:35 AM 62.6 °F 53.6 °F 72% 29.63 in 10.0 mi North 11.5 mph 24.2 mph N/A   Overcast
1:55 AM 62.6 °F 53.6 °F 72% 29.63 in 10.0 mi North 13.8 mph 18.4 mph N/A   Overcast
2:15 AM 60.8 °F 53.6 °F 77% 29.63 in 10.0 mi NNE 13.8 mph 17.3 mph N/A   Overcast
2:35 AM 60.8 °F 53.6 °F 77% 29.63 in 10.0 mi North 16.1 mph 23.0 mph N/A   Overcast
2:55 AM 60.8 °F 53.6 °F 77% 29.62 in 10.0 mi NNE 17.3 mph 32.2 mph N/A   Overcast
3:15 AM 60.8 °F 53.6 °F 77% 29.61 in 10.0 mi North 13.8 mph 20.7 mph N/A   Overcast
3:35 AM 60.8 °F 53.6 °F 77% 29.60 in 10.0 mi North 16.1 mph 21.9 mph N/A   Overcast
3:55 AM 60.8 °F 53.6 °F 77% 29.60 in 10.0 mi North 13.8 mph 20.7 mph N/A   Mostly Cloudy
4:15 AM 60.8 °F 53.6 °F 77% 29.60 in 10.0 mi North 10.4 mph - N/A   Mostly Cloudy
4:35 AM 60.8 °F 53.6 °F 77% 29.59 in 10.0 mi North 16.1 mph 21.9 mph N/A   Scattered Clouds
4:55 AM 60.8 °F 53.6 °F 77% 29.58 in 10.0 mi North 13.8 mph 23.0 mph N/A   Clear
5:15 AM 59.0 °F 51.8 °F 77% 29.60 in 10.0 mi North 6.9 mph - N/A   Scattered Clouds
5:35 AM 59.0 °F 51.8 °F 77% 29.59 in 10.0 mi North 11.5 mph 19.6 mph N/A   Scattered Clouds
5:55 AM 59.0 °F 51.8 °F 77% 29.59 in 10.0 mi North 15.0 mph 21.9 mph N/A   Scattered Clouds
6:15 AM 59.0 °F 51.8 °F 77% 29.58 in 10.0 mi North 12.7 mph 18.4 mph N/A   Scattered Clouds
6:35 AM 59.0 °F 51.8 °F 77% 29.59 in 10.0 mi North 11.5 mph 27.6 mph N/A   Scattered Clouds
6:55 AM 59.0 °F 50.0 °F 72% 29.59 in 10.0 mi North 13.8 mph 23.0 mph N/A   Scattered Clouds
7:15 AM 59.0 °F 50.0 °F 72% 29.59 in 10.0 mi North 11.5 mph 21.9 mph N/A   Scattered Clouds
7:35 AM 59.0 °F 50.0 °F 72% 29.59 in 10.0 mi North 13.8 mph 21.9 mph N/A   Scattered Clouds
7:55 AM 59.0 °F 48.2 °F 67% 29.59 in 10.0 mi North 13.8 mph 24.2 mph N/A   Mostly Cloudy
8:15 AM 59.0 °F 46.4 °F 63% 29.59 in 10.0 mi North 13.8 mph 20.7 mph N/A   Scattered Clouds
8:35 AM 59.0 °F 46.4 °F 63% 29.60 in 10.0 mi North 11.5 mph 19.6 mph N/A   Clear
8:55 AM 59.0 °F 46.4 °F 63% 29.59 in 10.0 mi North 13.8 mph 19.6 mph N/A   Clear
9:15 AM 59.0 °F 46.4 °F 63% 29.59 in 10.0 mi North 16.1 mph 25.3 mph N/A   Clear
9:35 AM 60.8 °F 46.4 °F 59% 29.59 in 10.0 mi North 13.8 mph 23.0 mph N/A   Scattered Clouds
9:55 AM 60.8 °F 46.4 °F 59% 29.59 in 10.0 mi North 12.7 mph 25.3 mph N/A   Mostly Cloudy
10:15 AM 60.8 °F 48.2 °F 63% 29.59 in 10.0 mi North 16.1 mph 27.6 mph N/A   Mostly Cloudy
10:35 AM 60.8 °F 48.2 °F 63% 29.59 in 10.0 mi North 10.4 mph 20.7 mph N/A   Mostly Cloudy
10:55 AM 60.8 °F 50.0 °F 68% 29.58 in 10.0 mi North 16.1 mph 23.0 mph N/A   Mostly Cloudy
11:15 AM 60.8 °F 50.0 °F 68% 29.57 in 10.0 mi North 15.0 mph 23.0 mph N/A   Mostly Cloudy
11:35 AM 62.6 °F 50.0 °F 63% 29.56 in 10.0 mi North 13.8 mph 28.8 mph N/A   Mostly Cloudy
11:55 AM 62.6 °F 50.0 °F 63% 29.56 in 10.0 mi North 15.0 mph 24.2 mph N/A   Overcast
12:15 PM 62.6 °F 50.0 °F 63% 29.56 in 10.0 mi North 13.8 mph 20.7 mph N/A   Overcast
12:35 PM 62.6 °F 50.0 °F 63% 29.56 in 10.0 mi North 12.7 mph 24.2 mph N/A   Overcast
12:55 PM 62.6 °F 50.0 °F 63% 29.56 in 10.0 mi North 12.7 mph 23.0 mph N/A   Overcast
1:15 PM 62.6 °F 48.2 °F 59% 29.55 in 10.0 mi North 18.4 mph 27.6 mph N/A   Overcast
1:35 PM 62.6 °F 50.0 °F 63% 29.55 in 10.0 mi North 8.1 mph 21.9 mph N/A   Overcast
1:55 PM 62.6 °F 48.2 °F 59% 29.55 in 10.0 mi North 11.5 mph 17.3 mph N/A   Overcast
2:15 PM 62.6 °F 48.2 °F 59% 29.54 in 10.0 mi North 9.2 mph 19.6 mph N/A   Overcast
2:35 PM 62.6 °F 48.2 °F 59% 29.54 in 10.0 mi North 11.5 mph 19.6 mph N/A   Overcast
2:55 PM 62.6 °F 48.2 °F 59% 29.54 in 10.0 mi North 12.7 mph 24.2 mph N/A   Overcast
3:15 PM 62.6 °F 46.4 °F 55% 29.54 in 10.0 mi North 12.7 mph 21.9 mph N/A   Overcast
3:35 PM 62.6 °F 46.4 °F 55% 29.54 in 10.0 mi North 10.4 mph 21.9 mph N/A   Overcast
3:55 PM 62.6 °F 46.4 °F 55% 29.54 in 10.0 mi North 9.2 mph 21.9 mph N/A   Overcast
4:15 PM 62.6 °F 46.4 °F 55% 29.54 in 10.0 mi North 13.8 mph 21.9 mph N/A   Overcast
4:35 PM 62.6 °F 46.4 °F 55% 29.54 in 10.0 mi North 15.0 mph 20.7 mph N/A   Overcast
4:55 PM 60.8 °F 46.4 °F 59% 29.54 in 10.0 mi North 9.2 mph 17.3 mph N/A   Overcast
5:15 PM 60.8 °F 46.4 °F 59% 29.54 in 10.0 mi NNW 9.2 mph 17.3 mph N/A   Overcast
5:35 PM 60.8 °F 46.4 °F 59% 29.55 in 10.0 mi North 9.2 mph 17.3 mph N/A   Overcast
5:55 PM 60.8 °F 46.4 °F 59% 29.55 in 10.0 mi North 9.2 mph 19.6 mph N/A   Overcast
6:15 PM 60.8 °F 46.4 °F 59% 29.57 in 10.0 mi NNW 6.9 mph - N/A   Overcast
6:35 PM 59.0 °F 46.4 °F 63% 29.57 in 10.0 mi North 11.5 mph 21.9 mph N/A   Overcast
6:55 PM 59.0 °F 46.4 °F 63% 29.57 in 10.0 mi North 11.5 mph 19.6 mph N/A   Overcast
7:15 PM 59.0 °F 46.4 °F 63% 29.57 in 10.0 mi NNW 12.7 mph 19.6 mph N/A   Overcast
7:35 PM 59.0 °F 48.2 °F 67% 29.57 in 10.0 mi NNW 10.4 mph 18.4 mph N/A   Overcast
7:55 PM 59.0 °F 48.2 °F 67% 29.57 in 10.0 mi NNW 6.9 mph 20.7 mph N/A   Overcast
8:15 PM 57.2 °F 50.0 °F 77% 29.56 in 10.0 mi NNW 8.1 mph - N/A   Overcast
8:35 PM 57.2 °F 50.0 °F 77% 29.56 in 10.0 mi North 9.2 mph 19.6 mph N/A   Overcast
8:55 PM 57.2 °F 50.0 °F 77% 29.56 in 10.0 mi NNW 9.2 mph 19.6 mph N/A   Overcast
9:15 PM 57.2 °F 50.0 °F 77% 29.56 in 10.0 mi North 15.0 mph 27.6 mph N/A   Overcast
9:35 PM 55.4 °F 50.0 °F 82% 29.57 in 10.0 mi North 10.4 mph 23.0 mph N/A   Overcast
9:55 PM 53.6 °F 51.8 °F 94% 29.58 in 7.0 mi North 9.2 mph 23.0 mph N/A   Overcast
10:15 PM 53.6 °F 51.8 °F 94% 29.57 in 7.0 mi NNW 8.1 mph - N/A   Overcast
10:35 PM 53.6 °F 51.8 °F 94% 29.57 in 10.0 mi North 10.4 mph - 0.01 in   Overcast
10:55 PM 53.6 °F 51.8 °F 94% 29.56 in 7.0 mi NNW 6.9 mph 20.7 mph 0.01 in   Overcast
11:15 PM 53.6 °F 51.8 °F 94% 29.56 in 7.0 mi NNW 9.2 mph - N/A   Overcast
11:55 PM 53.6 °F 53.6 °F 100% 29.55 in 7.0 mi NNW 4.6 mph - N/A   Overcast